Location: Abundant Grace Fellowship
(35.0349°N, 90.0924°W)
Time: 22:57:05
(UTC+00:00)

Okean 3 - Pass Details

Date: 18 January 2026
Orbit: 541 x 564 km, 82.5° (Epoch: 13 February)

Event Time Altitude Azimuth Distance (km) Brightness Sun altitude
Exits shadow 11:49:58 19° 331° (NNW) 1,338 4.9 -15.7°
Maximum altitude 11:52:28 43° 268° (W) 769 3.6 -15.2°
Drops below altitude 10° 11:56:13 10° 196° (SSW) 1,797 5.9 -14.5°
Sets 11:58:26 0° 189° (S) 2,686 6.9 -14.0°
